| time (UTC) | temp C | wind direction | speed KPH | gust KPH | rain 1hr cm | rain 24hr cm | rain mn cm | humidity % | barometer mb |
| 20260906170013 | 23 | 341 | 0.0 | 6.4 | 0.00 | 0.00 | 0.00 | 66 | 1015.4 |
| 20260906164513 | 24 | 300 | 0.0 | 8.0 | 0.00 | 0.00 | 0.00 | 66 | 1015.5 |
| 20260906163012 | 23 | 15 | 0.0 | 3.2 | 0.00 | 0.00 | 0.00 | 69 | 1015.5 |
| 20260906161510 | 24 | 319 | 0.0 | 4.8 | 0.00 | 0.00 | 0.00 | 67 | 1015.4 |
| 20260906160014 | 24 | 76 | 0.0 | 4.8 | 0.00 | 0.00 | 0.00 | 68 | 1015.5 |
| 20260906154506 | 23 | 92 | 0.0 | 3.2 | 0.00 | 0.00 | 0.00 | 72 | 1015.6 |
| 20260906153004 | 22 | 44 | 1.6 | 3.2 | 0.00 | 0.00 | 0.00 | 72 | 1015.7 |
| 20260906151505 | 22 | 38 | 1.6 | 4.8 | 0.00 | 0.00 | 0.00 | 72 | 1015.5 |
| 20260906144606 | 21 | 121 | 0.0 | 3.2 | 0.00 | 0.00 | 0.00 | 77 | 1015.6 |
| 20260906143057 | 22 | 22 | 0.0 | 3.2 | 0.00 | 0.00 | 0.00 | 76 | 1015.5 |
| 20260906141556 | 21 | 49 | 0.0 | 4.8 | 0.00 | 0.00 | 0.00 | 77 | 1015.4 |
| 20260906140055 | 22 | 44 | 0.0 | 3.2 | 0.00 | 0.00 | 0.00 | 76 | 1015.3 |
| 20260906134556 | 21 | 35 | 0.0 | 3.2 | 0.00 | 0.00 | 0.00 | 78 | 1015.2 |
| 20260906133047 | 21 | 49 | 0.0 | 1.6 | 0.00 | 0.00 | 0.00 | 82 | 1015.1 |
| 20260906131543 | 20 | 75 | 0.0 | 3.2 | 0.00 | 0.00 | 0.00 | 84 | 1015.0 |
| 20260906130040 | 19 | 304 | 0.0 | 1.6 | 0.00 | 0.00 | 0.00 | 87 | 1015.1 |
| 20260906124536 | 18 | 12 | 0.0 | 3.2 | 0.00 | 0.00 | 0.00 | 88 | 1015.1 |
| 20260906123038 | 18 | 248 | 0.0 | 4.8 | 0.00 | 0.00 | 0.00 | 88 | 1014.8 |
| 20260906121540 | 17 | 248 | 1.6 | 8.0 | 0.00 | 0.00 | 0.00 | 89 | 1014.8 |
| 20260906120130 | 17 | 224 | 0.0 | 4.8 | 0.00 | 0.00 | 0.00 | 90 | 1014.7 |
| 20260906114533 | 17 | 246 | 0.0 | 3.2 | 0.00 | 0.00 | 0.00 | 91 | 1014.5 |
| 20260906113041 | 17 | 319 | 0.0 | 3.2 | 0.00 | 0.00 | 0.00 | 92 | 1014.4 |
| 20260906111524 | 16 | 218 | 0.0 | 1.6 | 0.00 | 0.00 | 0.00 | 92 | 1014.1 |
| 20260906110022 | 16 | 40 | 0.0 | 3.2 | 0.00 | 0.00 | 0.00 | 92 | 1014.1 |
| 20260906104527 | 16 | 37 | 0.0 | 3.2 | 0.00 | 0.00 | 0.00 | 92 | 1013.9 |
| 20260906103018 | 16 | 38 | 0.0 | 1.6 | 0.00 | 0.00 | 0.00 | 92 | 1013.6 |
| 20260906101517 | 16 | 346 | 0.0 | 1.6 | 0.00 | 0.00 | 0.00 | 92 | 1013.5 |
| 20260906100018 | 16 | 215 | 0.0 | 4.8 | 0.00 | 0.00 | 0.00 | 93 | 1013.2 |
| 20260906094517 | 16 | 208 | 0.0 | 0.0 | 0.00 | 0.00 | 0.00 | 92 | 1013.2 |
| 20260906093012 | 16 | 207 | 0.0 | 3.2 | 0.00 | 0.00 | 0.00 | 92 | 1013.1 |
| 20260906091523 | 16 | 238 | 0.0 | 1.6 | 0.00 | 0.00 | 0.00 | 92 | 1012.7 |
| 20260906090010 | 16 | 355 | 0.0 | 3.2 | 0.00 | 0.00 | 0.00 | 91 | 1012.5 |
| 20260906084510 | 16 | 31 | 0.0 | 3.2 | 0.00 | 0.00 | 0.00 | 93 | 1012.4 |
| 20260906083013 | 16 | 66 | 0.0 | 1.6 | 0.00 | 0.00 | 0.00 | 93 | 1012.5 |
| 20260906081512 | 16 | 66 | 0.0 | 1.6 | 0.00 | 0.00 | 0.00 | 93 | 1012.2 |
| 20260906080007 | 16 | 74 | 0.0 | 1.6 | 0.00 | 0.00 | 0.00 | 93 | 1012.2 |
| 20260906074512 | 16 | 190 | 0.0 | 0.0 | 0.00 | 0.00 | 0.00 | 94 | 1012.2 |
| 20260906073005 | 16 | 205 | 0.0 | 0.0 | 0.00 | 0.00 | 0.00 | 93 | 1012.2 |
| 20260906071506 | 16 | 205 | 0.0 | 1.6 | 0.00 | 0.00 | 0.00 | 92 | 1012.3 |
| 20260906070003 | 16 | 250 | 0.0 | 0.0 | 0.00 | 0.00 | 0.00 | 91 | 1012.4 |
| 20260906064505 | 16 | 250 | 0.0 | 0.0 | 0.00 | 0.00 | 0.00 | 91 | 1012.4 |
| 20260906063002 | 16 | 11 | 0.0 | 1.6 | 0.00 | 0.00 | 0.00 | 91 | 1012.4 |
| 20260906061502 | 17 | 324 | 0.0 | 1.6 | 0.00 | 0.00 | 0.00 | 90 | 1012.4 |
| 20260906054600 | 17 | 337 | 0.0 | 0.0 | 0.00 | 0.00 | 0.00 | 88 | 1012.6 |
| 20260906053057 | 17 | 121 | 0.0 | 1.6 | 0.00 | 0.00 | 0.00 | 87 | 1012.6 |
| 20260906051602 | 17 | 261 | 0.0 | 1.6 | 0.00 | 0.00 | 0.00 | 89 | 1012.7 |
| 20260906050055 | 17 | 278 | 0.0 | 0.0 | 0.00 | 0.00 | 0.00 | 90 | 1012.6 |
| 20260906044553 | 17 | 278 | 0.0 | 1.6 | 0.00 | 0.00 | 0.00 | 91 | 1012.6 |
| 20260906043049 | 16 | 260 | 0.0 | 1.6 | 0.00 | 0.00 | 0.00 | 93 | 1012.7 |
| 20260906041546 | 16 | 186 | 0.0 | 0.0 | 0.00 | 0.00 | 0.00 | 94 | 1012.8 |
| 20260906040047 | 16 | 186 | 0.0 | 0.0 | 0.00 | 0.00 | 0.00 | 94 | 1012.7 |
| 20260906034543 | 16 | 186 | 0.0 | 0.0 | 0.00 | 0.13 | 0.00 | 94 | 1012.6 |
| 20260906033047 | 16 | 186 | 0.0 | 0.0 | 0.00 | 0.13 | 0.00 | 94 | 1012.5 |
| 20260906031554 | 16 | 186 | 0.0 | 0.0 | 0.00 | 0.13 | 0.00 | 93 | 1012.6 |
| 20260906030040 | 16 | 186 | 0.0 | 0.0 | 0.00 | 0.13 | 0.00 | 94 | 1012.5 |
| 20260906024539 | 16 | 186 | 0.0 | 0.0 | 0.00 | 0.13 | 0.00 | 94 | 1012.2 |
| 20260906023038 | 16 | 186 | 0.0 | 0.0 | 0.00 | 0.13 | 0.00 | 93 | 1012.3 |
| 20260906021536 | 16 | 186 | 0.0 | 0.0 | 0.00 | 0.13 | 0.00 | 93 | 1012.2 |
| 20260906020034 | 17 | 186 | 0.0 | 0.0 | 0.00 | 0.13 | 0.00 | 92 | 1012.2 |
| 20260906014536 | 17 | 186 | 0.0 | 0.0 | 0.00 | 0.13 | 0.00 | 91 | 1012.1 |
| 20260906013029 | 17 | 186 | 0.0 | 0.0 | 0.00 | 0.13 | 0.00 | 91 | 1012.0 |
| 20260906011535 | 17 | 186 | 0.0 | 0.0 | 0.00 | 0.13 | 0.00 | 91 | 1011.9 |
| 20260906010031 | 17 | 186 | 0.0 | 0.0 | 0.00 | 0.13 | 0.00 | 91 | 1011.8 |
| 20260906004525 | 18 | 186 | 0.0 | 0.0 | 0.00 | 0.13 | 0.00 | 90 | 1011.5 |
| 20260906003024 | 18 | 186 | 0.0 | 0.0 | 0.00 | 0.13 | 0.00 | 89 | 1011.2 |
| 20260906001520 | 18 | 186 | 0.0 | 0.0 | 0.00 | 0.13 | 0.00 | 87 | 1011.0 |
| 20260906000018 | 19 | 186 | 0.0 | 0.0 | 0.00 | 0.13 | 0.00 | 85 | 1010.9 |
| 20260905234517 | 20 | 186 | 0.0 | 0.0 | 0.00 | 0.13 | 0.00 | 82 | 1010.7 |
| 20260905233017 | 21 | 186 | 0.0 | 0.0 | 0.00 | 0.13 | 0.00 | 77 | 1010.6 |
| 20260905231517 | 23 | 186 | 0.0 | 3.2 | 0.00 | 0.13 | 0.00 | 68 | 1010.5 |
| 20260905230016 | 26 | 309 | 0.0 | 0.0 | 0.00 | 0.13 | 0.00 | 62 | 1010.5 |
| 20260905224525 | 26 | 309 | 0.0 | 3.2 | 0.00 | 0.13 | 0.00 | 56 | 1010.3 |
| 20260905223015 | 26 | 36 | 0.0 | 1.6 | 0.00 | 0.13 | 0.00 | 55 | 1010.4 |
| 20260905221517 | 26 | 267 | 0.0 | 3.2 | 0.00 | 0.13 | 0.00 | 55 | 1010.4 |
| 20260905220015 | 26 | 22 | 0.0 | 4.8 | 0.00 | 0.13 | 0.00 | 53 | 1010.2 |
| 20260905214514 | 26 | 340 | 0.0 | 9.7 | 0.00 | 0.13 | 0.00 | 53 | 1010.2 |
| 20260905213013 | 26 | 57 | 0.0 | 1.6 | 0.00 | 0.13 | 0.00 | 52 | 1010.2 |
| 20260905211512 | 27 | 78 | 0.0 | 3.2 | 0.00 | 0.13 | 0.00 | 53 | 1010.1 |
| 20260905210011 | 27 | 38 | 0.0 | 8.0 | 0.00 | 0.13 | 0.00 | 52 | 1010.0 |
| 20260905204514 | 27 | 248 | 0.0 | 6.4 | 0.00 | 0.13 | 0.00 | 51 | 1010.0 |
| 20260905203007 | 26 | 263 | 1.6 | 6.4 | 0.00 | 0.13 | 0.00 | 50 | 1010.1 |
| 20260905201507 | 26 | 298 | 0.0 | 8.0 | 0.00 | 0.13 | 0.00 | 51 | 1010.3 |
| 20260905200006 | 26 | 71 | 3.2 | 9.7 | 0.00 | 0.13 | 0.00 | 52 | 1010.4 |
| 20260905194505 | 26 | 51 | 0.0 | 6.4 | 0.00 | 0.13 | 0.00 | 54 | 1010.3 |
| 20260905193006 | 26 | 278 | 1.6 | 6.4 | 0.00 | 0.13 | 0.00 | 54 | 1010.4 |
| 20260905191504 | 26 | 245 | 1.6 | 8.0 | 0.00 | 0.13 | 0.00 | 56 | 1010.5 |
| 20260905190003 | 25 | 28 | 1.6 | 8.0 | 0.00 | 0.13 | 0.00 | 58 | 1010.5 |
| 20260905184503 | 26 | 42 | 1.6 | 4.8 | 0.00 | 0.13 | 0.00 | 55 | 1010.5 |
| 20260905183002 | 25 | 38 | 0.0 | 4.8 | 0.00 | 0.13 | 0.00 | 58 | 1010.7 |
| 20260905181502 | 27 | 26 | 1.6 | 6.4 | 0.00 | 0.13 | 0.00 | 54 | 1010.7 |
| 20260905180001 | 27 | 25 | 0.0 | 4.8 | 0.00 | 0.13 | 0.00 | 56 | 1010.8 |
| 20260905174558 | 26 | 271 | 1.6 | 6.4 | 0.00 | 0.13 | 0.00 | 56 | 1010.8 |
| 20260905173057 | 26 | 226 | 1.6 | 14.5 | 0.00 | 0.13 | 0.00 | 56 | 1010.9 |
| 20260905171554 | 25 | 248 | 0.0 | 8.0 | 0.00 | 0.13 | 0.00 | 63 | 1011.0 |